YZ-1 R/B, 43605

Orbit data source: Space-Track

YZ-1 R/B, 43605 is space debris originally from a launch on Fri, 24 Aug 2018 UTC launched from the Xichang Space Center, China (XSC). Debris objects in space refer to the collection of defunct objects orbiting the Earth. Examples of debris include non-operational satellites, rocket bodies, and fragments generated from explosions, collisions, or faulty payload assembly.

Loading next visibility...
Identifier
43605, 2018-067D
Orbit
Active
Country
Flag of CNCN / PRC
Related business
Manufacturer
CALT
Mission
Spacecraft
Bus & Motor
YZ-1, Unknown motor
Mass
~2,075 kg wet, ~2,075 kg dry
Launch date (UTC)
2018-08-24 (7 years ago)
Launch vehicle
Unknown
Launch site
Xichang Space Center, China (XSC)
Object type
Payload
Rocket body
Debris
Shape & HBR
Double Cone, 2.0 m
Radar Cross Section
5.890 m², Large (>1 m²)

Expand to show TLE details & history
Last TLE update: 1 day ago

TLE from 1 day ago
0 YZ-1 R/B
1 43605U 18067D   25351.22634738  .00000093  00000-0  00000-0 0  9993
2 43605  53.8104 194.0664 0053765  47.0432 313.4865  1.78798474 47755
Epoch: 2025-12-17T05:25Z
TLE epoch observation values (Epoch: 2025-12-17T05:25:56.413Z)
Latitude
0.00001°
Longitude
26.49159°
Altitude
22,190.795 km
Speed
3.742 km/s
True Right ascension
12h 56m 18s
True Declination
0° 00' 00"
Sunlit
Object was in daylight at epoch
Visualization orbit readout
Latitude
Unknown
Longitude
Unknown
Altitude
Unknown
Speed
Unknown
Apparent Right ascension
Unknown
Apparent Declination
Unknown
Sunlit
N/A
Visualization observer readout
Local Sidereal Time
13:21:07
Azimuth
Unknown
Elevation
Unknown
Doppler factor
Unknown
Orbital elements
Apogee altitude
22,450.371 km
Perigee altitude
22,142.036 km
Semi-major axis
28,674.34 km
Eccentricity
0.00538
Inclination
53.8104°
RAAN
194.0664°
Arg. of periapsis
47.0432°
True anomaly
313.03742°
Mean anomaly
313.4865°
Eccentric anomaly
313.26217°
Mean motion
0.447 °/min
Orbital period
805.38 mins
BSTAR
0
Loading maneuver chart data...
Computing Atmospheric mass density...
Loading historical data...
Loading historical data...
Loading historical data...
Loading historical data...
Loading historical data...
Loading historical data...
Loading historical data...
Other satellites on launch #67 in the year 2018 (2018-08-24 UTC)

Documentation

Showing up to 5 results
|